Year,Month,Day,Hour,Minute,Value (Times are PST for temperature in C)
2022,04,27,00,00,7.00
2022,04,27,00,01,6.90
2022,04,27,00,02,7.00
2022,04,27,00,03,7.00
2022,04,27,00,04,7.00
2022,04,27,00,05,7.00
2022,04,27,00,06,7.10
2022,04,27,00,07,7.10
2022,04,27,00,08,7.00
2022,04,27,00,09,7.00
2022,04,27,00,10,7.00
2022,04,27,00,11,7.00
2022,04,27,00,12,6.90
2022,04,27,00,13,6.90
2022,04,27,00,14,6.80
2022,04,27,00,15,6.70
2022,04,27,00,16,6.60
2022,04,27,00,17,6.60
2022,04,27,00,18,6.50
2022,04,27,00,19,6.40
2022,04,27,00,20,6.30
2022,04,27,00,21,6.30
2022,04,27,00,22,6.20
2022,04,27,00,23,6.10
2022,04,27,00,24,6.10
2022,04,27,00,25,6.00
2022,04,27,00,26,5.90
2022,04,27,00,27,5.90
2022,04,27,00,28,5.90
2022,04,27,00,29,5.80
2022,04,27,00,30,5.80
2022,04,27,00,31,5.80
2022,04,27,00,32,5.80
2022,04,27,00,33,5.70
2022,04,27,00,34,5.70
2022,04,27,00,35,5.70
2022,04,27,00,36,5.70
2022,04,27,00,37,5.70
2022,04,27,00,38,5.70
2022,04,27,00,39,5.70
2022,04,27,00,40,5.70
2022,04,27,00,41,5.70
2022,04,27,00,42,5.70
2022,04,27,00,43,5.70
2022,04,27,00,44,5.60
2022,04,27,00,45,5.60
2022,04,27,00,46,5.60
2022,04,27,00,47,5.60
2022,04,27,00,48,5.60
2022,04,27,00,49,5.60
2022,04,27,00,50,5.60
2022,04,27,00,51,5.60
2022,04,27,00,52,5.60
2022,04,27,00,53,5.50
2022,04,27,00,54,5.50
2022,04,27,00,55,5.60
2022,04,27,00,56,5.50
2022,04,27,00,57,5.50
2022,04,27,00,58,5.50
2022,04,27,00,59,5.50
2022,04,27,01,00,5.50
2022,04,27,01,01,5.50
2022,04,27,01,02,5.40
2022,04,27,01,03,5.40
2022,04,27,01,04,5.40
2022,04,27,01,05,5.40
2022,04,27,01,06,5.40
2022,04,27,01,07,5.40
2022,04,27,01,08,5.40
2022,04,27,01,09,5.40
2022,04,27,01,10,5.40
2022,04,27,01,11,5.40
2022,04,27,01,12,5.40
2022,04,27,01,13,5.40
2022,04,27,01,14,5.40
2022,04,27,01,15,5.40
2022,04,27,01,16,5.40
2022,04,27,01,17,5.40
2022,04,27,01,18,5.40
2022,04,27,01,19,5.40
2022,04,27,01,20,5.40
2022,04,27,01,21,5.40
2022,04,27,01,22,5.40
2022,04,27,01,23,5.40
2022,04,27,01,24,5.40
2022,04,27,01,25,5.40
2022,04,27,01,26,5.40
2022,04,27,01,27,5.40
2022,04,27,01,28,5.40
2022,04,27,01,29,5.40
2022,04,27,01,30,5.40
2022,04,27,01,31,5.40
2022,04,27,01,32,5.50
2022,04,27,01,33,5.50
2022,04,27,01,34,5.50
2022,04,27,01,35,5.50
2022,04,27,01,36,5.50
2022,04,27,01,37,5.50
2022,04,27,01,38,5.50
2022,04,27,01,39,5.40
2022,04,27,01,40,5.40
2022,04,27,01,41,5.50
2022,04,27,01,42,5.50
2022,04,27,01,43,5.50
2022,04,27,01,44,5.50
2022,04,27,01,45,5.50
2022,04,27,01,46,5.50
2022,04,27,01,47,5.50
2022,04,27,01,48,5.40
2022,04,27,01,49,5.40
2022,04,27,01,50,5.40
2022,04,27,01,51,5.40
2022,04,27,01,52,5.30
2022,04,27,01,53,5.30
2022,04,27,01,54,5.20
2022,04,27,01,55,5.20
2022,04,27,01,56,5.10
2022,04,27,01,57,5.10
2022,04,27,01,58,5.10
2022,04,27,01,59,5.00
2022,04,27,02,00,5.00
2022,04,27,02,01,5.00
2022,04,27,02,02,5.00
2022,04,27,02,03,5.00
2022,04,27,02,04,5.00
2022,04,27,02,05,4.90
2022,04,27,02,06,5.00
2022,04,27,02,07,4.90
2022,04,27,02,08,4.90
2022,04,27,02,09,5.00
2022,04,27,02,10,4.90
2022,04,27,02,11,5.00
2022,04,27,02,12,5.00
2022,04,27,02,13,5.00
2022,04,27,02,14,5.00
2022,04,27,02,15,5.00
2022,04,27,02,16,5.00
2022,04,27,02,17,5.00
2022,04,27,02,18,5.00
2022,04,27,02,19,5.00
2022,04,27,02,20,5.00
2022,04,27,02,21,5.00
2022,04,27,02,22,5.00
2022,04,27,02,23,5.00
2022,04,27,02,24,5.00
2022,04,27,02,25,5.10
2022,04,27,02,26,5.10
2022,04,27,02,27,5.10
2022,04,27,02,28,5.10
2022,04,27,02,29,5.10
2022,04,27,02,30,5.20
2022,04,27,02,31,5.20
2022,04,27,02,32,5.30
2022,04,27,02,33,5.30
2022,04,27,02,34,5.40
2022,04,27,02,35,5.40
2022,04,27,02,36,5.40
2022,04,27,02,37,5.40
2022,04,27,02,38,5.40
2022,04,27,02,39,5.40
2022,04,27,02,40,5.40
2022,04,27,02,41,5.40
2022,04,27,02,42,5.40
2022,04,27,02,43,5.30
2022,04,27,02,44,5.30
2022,04,27,02,45,5.30
2022,04,27,02,46,5.30
2022,04,27,02,47,5.30
2022,04,27,02,48,5.20
2022,04,27,02,49,5.20
2022,04,27,02,50,5.20
2022,04,27,02,51,5.20
2022,04,27,02,52,5.20
2022,04,27,02,53,5.20
2022,04,27,02,54,5.20
2022,04,27,02,55,5.20
2022,04,27,02,56,5.10
2022,04,27,02,57,5.10
2022,04,27,02,58,5.10
2022,04,27,02,59,5.10
2022,04,27,03,00,5.10
2022,04,27,03,01,5.10
2022,04,27,03,02,5.10
2022,04,27,03,03,5.10
2022,04,27,03,04,5.10
2022,04,27,03,05,5.00
2022,04,27,03,06,5.00
2022,04,27,03,07,4.90
2022,04,27,03,08,4.90
2022,04,27,03,09,4.90
2022,04,27,03,10,4.80
2022,04,27,03,11,4.80
2022,04,27,03,12,4.80
2022,04,27,03,13,4.80
2022,04,27,03,14,4.70
2022,04,27,03,15,4.70
2022,04,27,03,16,4.70
2022,04,27,03,17,4.70
2022,04,27,03,18,4.70
2022,04,27,03,19,4.60
2022,04,27,03,20,4.70
2022,04,27,03,21,4.60
2022,04,27,03,22,4.60
2022,04,27,03,23,4.60
2022,04,27,03,24,4.60
2022,04,27,03,25,4.60
2022,04,27,03,26,4.60
2022,04,27,03,27,4.60
2022,04,27,03,28,4.50
2022,04,27,03,29,4.50
2022,04,27,03,30,4.50
2022,04,27,03,31,4.50
2022,04,27,03,32,4.50
2022,04,27,03,33,4.50
2022,04,27,03,34,4.50
2022,04,27,03,35,4.50
2022,04,27,03,36,4.50
2022,04,27,03,37,4.40
2022,04,27,03,38,4.50
2022,04,27,03,39,4.40
2022,04,27,03,40,4.40
2022,04,27,03,41,4.40
2022,04,27,03,42,4.50
2022,04,27,03,43,4.40
2022,04,27,03,44,4.40
2022,04,27,03,45,4.40
2022,04,27,03,46,4.40
2022,04,27,03,47,4.40
2022,04,27,03,48,4.40
2022,04,27,03,49,4.40
2022,04,27,03,50,4.40
2022,04,27,03,51,4.40
2022,04,27,03,52,4.40
2022,04,27,03,53,4.40
2022,04,27,03,54,4.40
2022,04,27,03,55,4.40
2022,04,27,03,56,4.40
2022,04,27,03,57,4.40
2022,04,27,03,58,4.30
2022,04,27,03,59,4.30
2022,04,27,04,00,4.30
2022,04,27,04,01,4.30
2022,04,27,04,02,4.30
2022,04,27,04,03,4.20
2022,04,27,04,04,4.20
2022,04,27,04,05,4.20
2022,04,27,04,06,4.20
2022,04,27,04,07,4.20
2022,04,27,04,08,4.20
2022,04,27,04,09,4.20
2022,04,27,04,10,4.10
2022,04,27,04,11,4.10
2022,04,27,04,12,4.10
2022,04,27,04,13,4.10
2022,04,27,04,14,4.10
2022,04,27,04,15,4.10
2022,04,27,04,16,4.10
2022,04,27,04,17,4.00
2022,04,27,04,18,4.00
2022,04,27,04,19,4.00
2022,04,27,04,20,4.00
2022,04,27,04,21,4.00
2022,04,27,04,22,4.00
2022,04,27,04,23,4.00
2022,04,27,04,24,4.00
2022,04,27,04,25,4.00
2022,04,27,04,26,4.00
2022,04,27,04,27,4.00
2022,04,27,04,28,3.90
2022,04,27,04,29,3.90
2022,04,27,04,30,3.90
2022,04,27,04,31,3.90
2022,04,27,04,32,3.90
2022,04,27,04,33,3.90
2022,04,27,04,34,3.90
2022,04,27,04,35,3.90
2022,04,27,04,36,3.90
2022,04,27,04,37,3.90
2022,04,27,04,38,3.90
2022,04,27,04,39,3.90
2022,04,27,04,40,3.90
2022,04,27,04,41,3.90
2022,04,27,04,42,3.90
2022,04,27,04,43,3.90
2022,04,27,04,44,3.90
2022,04,27,04,45,3.90
2022,04,27,04,46,3.90
2022,04,27,04,47,3.90
2022,04,27,04,48,3.90
2022,04,27,04,49,3.90
2022,04,27,04,50,3.90
2022,04,27,04,51,3.90
2022,04,27,04,52,3.90
2022,04,27,04,53,3.90
2022,04,27,04,54,3.90
2022,04,27,04,55,3.90
2022,04,27,04,56,3.90
2022,04,27,04,57,3.90
2022,04,27,04,58,3.90
2022,04,27,04,59,3.80
2022,04,27,05,00,3.80
2022,04,27,05,01,3.80
2022,04,27,05,02,3.80
2022,04,27,05,03,3.80
2022,04,27,05,04,3.80
2022,04,27,05,05,3.80
2022,04,27,05,06,3.80
2022,04,27,05,07,3.80
2022,04,27,05,08,3.80
2022,04,27,05,09,3.80
2022,04,27,05,10,3.80
2022,04,27,05,11,3.70
2022,04,27,05,12,3.80
2022,04,27,05,13,3.70
2022,04,27,05,14,3.80
2022,04,27,05,15,3.80
2022,04,27,05,16,3.80
2022,04,27,05,17,3.80
2022,04,27,05,18,3.80
2022,04,27,05,19,3.80
2022,04,27,05,20,3.80
2022,04,27,05,21,3.80
2022,04,27,05,22,3.80
2022,04,27,05,23,3.80
2022,04,27,05,24,3.80
2022,04,27,05,25,3.90
2022,04,27,05,26,3.90
2022,04,27,05,27,3.90
2022,04,27,05,28,3.90
2022,04,27,05,29,4.00
2022,04,27,05,30,4.00
2022,04,27,05,31,4.00
2022,04,27,05,32,4.10
2022,04,27,05,33,4.00
2022,04,27,05,34,4.10
2022,04,27,05,35,4.10
2022,04,27,05,36,4.10
2022,04,27,05,37,4.10
2022,04,27,05,38,4.10
2022,04,27,05,39,4.10
2022,04,27,05,40,4.10
2022,04,27,05,41,4.10
2022,04,27,05,42,4.10
2022,04,27,05,43,4.10
2022,04,27,05,44,4.10
2022,04,27,05,45,4.10
2022,04,27,05,46,4.10
2022,04,27,05,47,4.10
2022,04,27,05,48,4.10
2022,04,27,05,49,4.00
2022,04,27,05,50,4.10
2022,04,27,05,51,4.10
2022,04,27,05,52,4.10
2022,04,27,05,53,4.10
2022,04,27,05,54,4.10
2022,04,27,05,55,4.10
2022,04,27,05,56,4.10
2022,04,27,05,57,4.10
2022,04,27,05,58,4.10
2022,04,27,05,59,4.00
2022,04,27,06,00,4.00
2022,04,27,06,01,4.00
2022,04,27,06,02,4.10
2022,04,27,06,03,4.00
2022,04,27,06,04,4.10
2022,04,27,06,05,4.10
2022,04,27,06,06,4.00
2022,04,27,06,07,4.10
2022,04,27,06,08,4.10
2022,04,27,06,09,4.10
2022,04,27,06,10,4.10
2022,04,27,06,11,4.10
2022,04,27,06,12,4.10
2022,04,27,06,13,4.20
2022,04,27,06,14,4.20
2022,04,27,06,15,4.20
2022,04,27,06,16,4.20
2022,04,27,06,17,4.20
2022,04,27,06,18,4.20
2022,04,27,06,19,4.20
2022,04,27,06,20,4.20
2022,04,27,06,21,4.20
2022,04,27,06,22,4.20
2022,04,27,06,23,4.20
2022,04,27,06,24,4.20
2022,04,27,06,25,4.20
2022,04,27,06,26,4.20
2022,04,27,06,27,4.20
2022,04,27,06,28,4.20
2022,04,27,06,29,4.20
2022,04,27,06,30,4.20
2022,04,27,06,31,4.30
2022,04,27,06,32,4.30
2022,04,27,06,33,4.30
2022,04,27,06,34,4.30
2022,04,27,06,35,4.30
2022,04,27,06,36,4.30
2022,04,27,06,37,4.30
2022,04,27,06,38,4.30
2022,04,27,06,39,4.30
2022,04,27,06,40,4.30
2022,04,27,06,41,4.30
2022,04,27,06,42,4.30
2022,04,27,06,43,4.30
2022,04,27,06,44,4.30
2022,04,27,06,45,4.20
2022,04,27,06,46,4.20
2022,04,27,06,47,4.20
2022,04,27,06,48,4.20
2022,04,27,06,49,4.30
2022,04,27,06,50,4.30
2022,04,27,06,51,4.30
2022,04,27,06,52,4.30
2022,04,27,06,53,4.30
2022,04,27,06,54,4.30
2022,04,27,06,55,4.30
2022,04,27,06,56,4.30
2022,04,27,06,57,4.30
2022,04,27,06,58,4.40
2022,04,27,06,59,4.40
2022,04,27,07,00,4.40
2022,04,27,07,01,4.40
2022,04,27,07,02,4.40
2022,04,27,07,03,4.40
2022,04,27,07,04,4.40
2022,04,27,07,05,4.40
2022,04,27,07,06,4.40
2022,04,27,07,07,4.40
2022,04,27,07,08,4.40
2022,04,27,07,09,4.40
2022,04,27,07,10,4.40
2022,04,27,07,11,4.40
2022,04,27,07,12,4.40
2022,04,27,07,13,4.40
2022,04,27,07,14,4.40
2022,04,27,07,15,4.40
2022,04,27,07,16,4.40
2022,04,27,07,17,4.40
2022,04,27,07,18,4.40
2022,04,27,07,19,4.40
2022,04,27,07,20,4.50
2022,04,27,07,21,4.50
2022,04,27,07,22,4.50
2022,04,27,07,23,4.50
2022,04,27,07,24,4.50
2022,04,27,07,25,4.60
2022,04,27,07,26,4.60
2022,04,27,07,27,4.60
2022,04,27,07,28,4.60
2022,04,27,07,29,4.60
2022,04,27,07,30,4.60
2022,04,27,07,31,4.60
2022,04,27,07,32,4.60
2022,04,27,07,33,4.60
2022,04,27,07,34,4.50
2022,04,27,07,35,4.50
2022,04,27,07,36,4.50
2022,04,27,07,37,4.50
2022,04,27,07,38,4.50
2022,04,27,07,39,4.50
2022,04,27,07,40,4.50
2022,04,27,07,41,4.50
2022,04,27,07,42,4.50
2022,04,27,07,43,4.50
2022,04,27,07,44,4.50
2022,04,27,07,45,4.50
2022,04,27,07,46,4.50
2022,04,27,07,47,4.50
2022,04,27,07,48,4.50
2022,04,27,07,49,4.50
2022,04,27,07,50,4.50
2022,04,27,07,51,4.50
2022,04,27,07,52,4.60
2022,04,27,07,53,4.60
2022,04,27,07,54,4.60
2022,04,27,07,55,4.60
2022,04,27,07,56,4.60
2022,04,27,07,57,4.60
2022,04,27,07,58,4.60
2022,04,27,07,59,4.70
2022,04,27,08,00,4.70
2022,04,27,08,01,4.70
2022,04,27,08,02,4.70
2022,04,27,08,03,4.70
2022,04,27,08,04,4.70
2022,04,27,08,05,4.70
2022,04,27,08,06,4.70
2022,04,27,08,07,4.80
2022,04,27,08,08,4.80
2022,04,27,08,09,4.80
2022,04,27,08,10,4.80
2022,04,27,08,11,4.80
2022,04,27,08,12,4.80
2022,04,27,08,13,4.80
2022,04,27,08,14,4.80
2022,04,27,08,15,4.80
2022,04,27,08,16,4.80
2022,04,27,08,17,4.80
2022,04,27,08,18,4.80
2022,04,27,08,19,4.80
2022,04,27,08,20,4.80
2022,04,27,08,21,4.80
2022,04,27,08,22,4.80
2022,04,27,08,23,4.90
2022,04,27,08,24,4.90
2022,04,27,08,25,4.90
2022,04,27,08,26,4.90
2022,04,27,08,27,4.90
2022,04,27,08,28,4.90
2022,04,27,08,29,4.90
2022,04,27,08,30,4.90
2022,04,27,08,31,4.90
2022,04,27,08,32,4.90
2022,04,27,08,33,5.00
2022,04,27,08,34,5.00
2022,04,27,08,35,5.00
2022,04,27,08,36,5.00
2022,04,27,08,37,5.00
2022,04,27,08,38,5.10
2022,04,27,08,39,5.10
2022,04,27,08,40,5.10
2022,04,27,08,41,5.10
2022,04,27,08,42,5.10
2022,04,27,08,43,5.10
2022,04,27,08,44,5.10
2022,04,27,08,45,5.10
2022,04,27,08,46,5.10
2022,04,27,08,47,5.10
2022,04,27,08,48,5.10
2022,04,27,08,49,5.20
2022,04,27,08,50,5.10
2022,04,27,08,51,5.10
2022,04,27,08,52,5.10
2022,04,27,08,53,5.20
2022,04,27,08,54,5.20
2022,04,27,08,55,5.20
2022,04,27,08,56,5.20
2022,04,27,08,57,5.20
2022,04,27,08,58,5.20
2022,04,27,08,59,5.20
2022,04,27,09,00,5.20
2022,04,27,09,01,5.20
2022,04,27,09,02,5.20
2022,04,27,09,03,5.20
2022,04,27,09,04,5.20
2022,04,27,09,05,5.30
2022,04,27,09,06,5.20
2022,04,27,09,07,5.30
2022,04,27,09,08,5.30
2022,04,27,09,09,5.30
2022,04,27,09,10,5.30
2022,04,27,09,11,5.30
2022,04,27,09,12,5.30
2022,04,27,09,13,5.30
2022,04,27,09,14,5.30
2022,04,27,09,15,5.30
2022,04,27,09,16,5.30
2022,04,27,09,17,5.30
2022,04,27,09,18,5.30
2022,04,27,09,19,5.30
2022,04,27,09,20,5.30
2022,04,27,09,21,5.30
2022,04,27,09,22,5.40
2022,04,27,09,23,5.40
2022,04,27,09,24,5.40
2022,04,27,09,25,5.40
2022,04,27,09,26,5.40
2022,04,27,09,27,5.40
2022,04,27,09,28,5.40
2022,04,27,09,29,5.40
2022,04,27,09,30,5.40
2022,04,27,09,31,5.40
2022,04,27,09,32,5.40
2022,04,27,09,33,5.40
2022,04,27,09,34,5.40
2022,04,27,09,35,5.40
2022,04,27,09,36,5.40
2022,04,27,09,37,5.40
2022,04,27,09,38,5.50
2022,04,27,09,39,5.50
2022,04,27,09,40,5.50
2022,04,27,09,41,5.50
2022,04,27,09,42,5.50
2022,04,27,09,43,5.60
2022,04,27,09,44,5.60
2022,04,27,09,45,5.70
2022,04,27,09,46,5.70
2022,04,27,09,47,5.70
2022,04,27,09,48,5.80
2022,04,27,09,49,5.80
2022,04,27,09,50,5.80
2022,04,27,09,51,5.90
2022,04,27,09,52,5.90
2022,04,27,09,53,6.00
2022,04,27,09,54,6.00
2022,04,27,09,55,6.00
2022,04,27,09,56,6.10
2022,04,27,09,57,6.10
2022,04,27,09,58,6.10
2022,04,27,09,59,6.20
2022,04,27,10,00,6.20
2022,04,27,10,01,6.20
2022,04,27,10,02,6.20
2022,04,27,10,03,6.20
2022,04,27,10,04,6.30
2022,04,27,10,05,6.30
2022,04,27,10,06,6.30
2022,04,27,10,07,6.30
2022,04,27,10,08,6.30
2022,04,27,10,09,6.40
2022,04,27,10,10,6.40
2022,04,27,10,11,6.40
2022,04,27,10,12,6.40
2022,04,27,10,13,6.40
2022,04,27,10,14,6.50
2022,04,27,10,15,6.50
2022,04,27,10,16,6.60
2022,04,27,10,17,6.60
2022,04,27,10,18,6.60
2022,04,27,10,19,6.60
2022,04,27,10,20,6.60
2022,04,27,10,21,6.70
2022,04,27,10,22,6.70
2022,04,27,10,23,6.70
2022,04,27,10,24,6.70
2022,04,27,10,25,6.70
2022,04,27,10,26,6.70
2022,04,27,10,27,6.70
2022,04,27,10,28,6.70
2022,04,27,10,29,6.70
2022,04,27,10,30,6.80
2022,04,27,10,31,6.80
2022,04,27,10,32,6.80
2022,04,27,10,33,6.80
2022,04,27,10,34,6.80
2022,04,27,10,35,6.80
2022,04,27,10,36,6.80
2022,04,27,10,37,6.90
2022,04,27,10,38,6.80
2022,04,27,10,39,6.90
2022,04,27,10,40,6.90
2022,04,27,10,41,6.90
2022,04,27,10,42,6.90
2022,04,27,10,43,6.90
2022,04,27,10,44,7.00
2022,04,27,10,45,7.00
2022,04,27,10,46,7.00
2022,04,27,10,47,7.10
2022,04,27,10,48,7.10
2022,04,27,10,49,7.10
2022,04,27,10,50,7.10
2022,04,27,10,51,7.10
2022,04,27,10,52,7.20
2022,04,27,10,53,7.20
2022,04,27,10,54,7.20
2022,04,27,10,55,7.20
2022,04,27,10,56,7.30
2022,04,27,10,57,7.30
2022,04,27,10,58,7.30
2022,04,27,10,59,7.40
2022,04,27,11,00,7.40
2022,04,27,11,01,7.40
2022,04,27,11,02,7.50
2022,04,27,11,03,7.50
2022,04,27,11,04,7.60
2022,04,27,11,05,7.60
2022,04,27,11,06,7.60
2022,04,27,11,07,7.60
2022,04,27,11,08,7.70
2022,04,27,11,09,7.70
2022,04,27,11,10,7.70
2022,04,27,11,11,7.60
2022,04,27,11,12,7.60
2022,04,27,11,13,7.60
2022,04,27,11,14,7.60
2022,04,27,11,15,7.70
2022,04,27,11,16,7.70
2022,04,27,11,17,7.70
2022,04,27,11,18,7.70
2022,04,27,11,19,7.70
2022,04,27,11,20,7.80
2022,04,27,11,21,7.80
2022,04,27,11,22,7.80
2022,04,27,11,23,7.80
2022,04,27,11,24,7.90
2022,04,27,11,25,7.90
2022,04,27,11,26,7.90
2022,04,27,11,27,7.90
2022,04,27,11,28,8.00
2022,04,27,11,29,8.00
2022,04,27,11,30,8.00
2022,04,27,11,31,8.10
2022,04,27,11,32,8.10
2022,04,27,11,33,8.10
2022,04,27,11,34,8.10
2022,04,27,11,35,8.10
2022,04,27,11,36,8.10
2022,04,27,11,37,8.10
2022,04,27,11,38,8.20
2022,04,27,11,39,8.20
2022,04,27,11,40,8.20
2022,04,27,11,41,8.30
2022,04,27,11,42,8.30
2022,04,27,11,43,8.30
2022,04,27,11,44,8.30
2022,04,27,11,45,8.30
2022,04,27,11,46,8.30
2022,04,27,11,47,8.30
2022,04,27,11,48,8.30
2022,04,27,11,49,8.30
2022,04,27,11,50,8.30
2022,04,27,11,51,8.30
2022,04,27,11,52,8.40
2022,04,27,11,53,8.40
2022,04,27,11,54,8.40
2022,04,27,11,55,8.40
2022,04,27,11,56,8.40
2022,04,27,11,57,8.40
2022,04,27,11,58,8.50
2022,04,27,11,59,8.50
2022,04,27,12,00,8.60
2022,04,27,12,01,8.60
2022,04,27,12,02,8.60
2022,04,27,12,03,8.60
2022,04,27,12,04,8.60
2022,04,27,12,05,8.60
2022,04,27,12,06,8.50
2022,04,27,12,07,8.50
2022,04,27,12,08,8.50
2022,04,27,12,09,8.50
2022,04,27,12,10,8.50
2022,04,27,12,11,8.50
2022,04,27,12,12,8.50
2022,04,27,12,13,8.60
2022,04,27,12,14,8.60
2022,04,27,12,15,8.60
2022,04,27,12,16,8.70
2022,04,27,12,17,8.70
2022,04,27,12,18,8.70
2022,04,27,12,19,8.80
2022,04,27,12,20,8.80
2022,04,27,12,21,8.80
2022,04,27,12,22,8.70
2022,04,27,12,23,8.70
2022,04,27,12,24,8.70
2022,04,27,12,25,8.70
2022,04,27,12,26,8.60
2022,04,27,12,27,8.60
2022,04,27,12,28,8.60
2022,04,27,12,29,8.60
2022,04,27,12,30,8.70
2022,04,27,12,31,8.70
2022,04,27,12,32,8.70
2022,04,27,12,33,8.70
2022,04,27,12,34,8.70
2022,04,27,12,35,8.70
2022,04,27,12,36,8.70
2022,04,27,12,37,8.70
2022,04,27,12,38,8.70
2022,04,27,12,39,8.70
2022,04,27,12,40,8.80
2022,04,27,12,41,9.00
2022,04,27,12,42,9.10
2022,04,27,12,43,9.20
2022,04,27,12,44,9.20
2022,04,27,12,45,9.30
2022,04,27,12,46,9.30
2022,04,27,12,47,9.30
2022,04,27,12,48,9.30
2022,04,27,12,49,9.40
2022,04,27,12,50,9.40
2022,04,27,12,51,9.50
2022,04,27,12,52,9.60
2022,04,27,12,53,9.60
2022,04,27,12,54,9.70
2022,04,27,12,55,9.80
2022,04,27,12,56,9.80
2022,04,27,12,57,9.80
2022,04,27,12,58,9.80
2022,04,27,12,59,9.80
2022,04,27,13,00,9.80
2022,04,27,13,01,9.80
2022,04,27,13,02,9.80
2022,04,27,13,03,9.90
2022,04,27,13,04,9.90
2022,04,27,13,05,9.90
2022,04,27,13,06,9.90
2022,04,27,13,07,9.90
2022,04,27,13,08,10.00
2022,04,27,13,09,10.00
2022,04,27,13,10,10.00
2022,04,27,13,11,10.00
2022,04,27,13,12,10.10
2022,04,27,13,13,10.00
2022,04,27,13,14,10.00
2022,04,27,13,15,10.00
2022,04,27,13,16,10.00
2022,04,27,13,17,9.90
2022,04,27,13,18,9.90
2022,04,27,13,19,9.90
2022,04,27,13,20,9.90
2022,04,27,13,21,9.90
2022,04,27,13,22,9.90
2022,04,27,13,23,9.90
2022,04,27,13,24,9.90
2022,04,27,13,25,9.90
2022,04,27,13,26,9.90
2022,04,27,13,27,9.90
2022,04,27,13,28,9.90
2022,04,27,13,29,9.90
2022,04,27,13,30,9.90
2022,04,27,13,31,9.90
2022,04,27,13,32,9.90
2022,04,27,13,33,9.90
2022,04,27,13,34,9.90
2022,04,27,13,35,9.90
2022,04,27,13,36,10.00
2022,04,27,13,37,10.10
2022,04,27,13,38,10.10
2022,04,27,13,39,10.20
2022,04,27,13,40,10.20
2022,04,27,13,41,10.20
2022,04,27,13,42,10.20
2022,04,27,13,43,10.30
2022,04,27,13,44,10.40
2022,04,27,13,45,10.50
2022,04,27,13,46,10.60
2022,04,27,13,47,10.60
2022,04,27,13,48,10.50
2022,04,27,13,49,10.50
2022,04,27,13,50,10.40
2022,04,27,13,51,10.30
2022,04,27,13,52,10.30
2022,04,27,13,53,10.20
2022,04,27,13,54,10.30
2022,04,27,13,55,10.30
2022,04,27,13,56,10.30
2022,04,27,13,57,10.30
2022,04,27,13,58,10.30
2022,04,27,13,59,10.30
2022,04,27,14,00,10.30
2022,04,27,14,01,10.30
2022,04,27,14,02,10.30
2022,04,27,14,03,10.30
2022,04,27,14,04,10.30
2022,04,27,14,05,10.20
2022,04,27,14,06,10.20
2022,04,27,14,07,10.20
2022,04,27,14,08,10.20
2022,04,27,14,09,10.20
2022,04,27,14,10,10.20
2022,04,27,14,11,10.30
2022,04,27,14,12,10.40
2022,04,27,14,13,10.50
2022,04,27,14,14,10.70
2022,04,27,14,15,10.70
2022,04,27,14,16,10.80
2022,04,27,14,17,10.70
2022,04,27,14,18,10.70
2022,04,27,14,19,10.70
2022,04,27,14,20,10.70
2022,04,27,14,21,10.80
2022,04,27,14,22,10.80
2022,04,27,14,23,10.80
2022,04,27,14,24,10.80
2022,04,27,14,25,10.70
2022,04,27,14,26,10.70
2022,04,27,14,27,10.70
2022,04,27,14,28,10.70
2022,04,27,14,29,10.70
2022,04,27,14,30,10.70
2022,04,27,14,31,10.70
2022,04,27,14,32,10.70
2022,04,27,14,33,10.70
2022,04,27,14,34,10.70
2022,04,27,14,35,10.70
2022,04,27,14,36,10.70
2022,04,27,14,37,10.80
2022,04,27,14,38,10.80
2022,04,27,14,39,10.80
2022,04,27,14,40,10.90
2022,04,27,14,41,10.90
2022,04,27,14,42,11.00
2022,04,27,14,43,11.00
2022,04,27,14,44,11.10
2022,04,27,14,45,11.10
2022,04,27,14,46,11.10
2022,04,27,14,47,11.10
2022,04,27,14,48,11.10
2022,04,27,14,49,11.00
2022,04,27,14,50,11.00
2022,04,27,14,51,11.00
2022,04,27,14,52,11.00
2022,04,27,14,53,10.90
2022,04,27,14,54,10.90
2022,04,27,14,55,10.90
2022,04,27,14,56,10.80
2022,04,27,14,57,10.80
2022,04,27,14,58,10.80
2022,04,27,14,59,10.80
2022,04,27,15,00,10.80
2022,04,27,15,01,10.70
2022,04,27,15,02,10.70
2022,04,27,15,03,10.60
2022,04,27,15,04,10.60
2022,04,27,15,05,10.50
2022,04,27,15,06,10.50
2022,04,27,15,07,10.40
2022,04,27,15,08,10.40
2022,04,27,15,09,10.40
2022,04,27,15,10,10.40
2022,04,27,15,11,10.30
2022,04,27,15,12,10.30
2022,04,27,15,13,10.20
2022,04,27,15,14,10.00
2022,04,27,15,15,9.90
2022,04,27,15,16,9.70
2022,04,27,15,17,9.60
2022,04,27,15,18,9.50
2022,04,27,15,19,9.50
2022,04,27,15,20,9.40
2022,04,27,15,21,9.40
2022,04,27,15,22,9.40
2022,04,27,15,23,9.30
2022,04,27,15,24,9.30
2022,04,27,15,25,9.20
2022,04,27,15,26,9.20
2022,04,27,15,27,9.10
2022,04,27,15,28,9.10
2022,04,27,15,29,9.10
2022,04,27,15,30,9.10
2022,04,27,15,31,9.10
2022,04,27,15,32,9.10
2022,04,27,15,33,9.10
2022,04,27,15,34,9.10
2022,04,27,15,35,9.10
2022,04,27,15,36,9.20
2022,04,27,15,37,9.20
2022,04,27,15,38,9.20
2022,04,27,15,39,9.30
2022,04,27,15,40,9.30
2022,04,27,15,41,9.30
2022,04,27,15,42,9.30
2022,04,27,15,43,9.30
2022,04,27,15,44,9.30
2022,04,27,15,45,9.30
2022,04,27,15,46,9.30
2022,04,27,15,47,9.30
2022,04,27,15,48,9.30
2022,04,27,15,49,9.30
2022,04,27,15,50,9.30
2022,04,27,15,51,9.40
2022,04,27,15,52,9.40
2022,04,27,15,53,9.50
2022,04,27,15,54,9.60
2022,04,27,15,55,9.60
2022,04,27,15,56,9.60
2022,04,27,15,57,9.60
2022,04,27,15,58,9.60
2022,04,27,15,59,9.70
2022,04,27,16,00,9.70
2022,04,27,16,01,9.60
2022,04,27,16,02,9.60
2022,04,27,16,03,9.60
2022,04,27,16,04,9.60
2022,04,27,16,05,9.60
2022,04,27,16,06,9.60
2022,04,27,16,07,9.60
2022,04,27,16,08,9.60
2022,04,27,16,09,9.60
2022,04,27,16,10,9.60
2022,04,27,16,11,9.60
2022,04,27,16,12,9.60
2022,04,27,16,13,9.60
2022,04,27,16,14,9.60
2022,04,27,16,15,9.60
2022,04,27,16,16,9.60
2022,04,27,16,17,9.60
2022,04,27,16,18,9.60
2022,04,27,16,19,9.60
2022,04,27,16,20,9.60
2022,04,27,16,21,9.60
2022,04,27,16,22,9.60
2022,04,27,16,23,9.60
2022,04,27,16,24,9.60
2022,04,27,16,25,9.60
2022,04,27,16,26,9.80
2022,04,27,16,27,10.00
2022,04,27,16,28,10.20
2022,04,27,16,29,10.30
2022,04,27,16,30,10.50
2022,04,27,16,31,10.70
2022,04,27,16,32,10.80
2022,04,27,16,33,10.80
2022,04,27,16,34,10.70
2022,04,27,16,35,10.60
2022,04,27,16,36,10.50
2022,04,27,16,37,10.40
2022,04,27,16,38,10.40
2022,04,27,16,39,10.30
2022,04,27,16,40,10.30
2022,04,27,16,41,10.20
2022,04,27,16,42,10.10
2022,04,27,16,43,10.10
2022,04,27,16,44,10.10
2022,04,27,16,45,10.00
2022,04,27,16,46,10.10
2022,04,27,16,47,10.10
2022,04,27,16,48,10.10
2022,04,27,16,49,10.10
2022,04,27,16,50,10.10
2022,04,27,16,51,10.20
2022,04,27,16,52,10.20
2022,04,27,16,53,10.20
2022,04,27,16,54,10.20
2022,04,27,16,55,10.20
2022,04,27,16,56,10.20
2022,04,27,16,57,10.20
2022,04,27,16,58,10.20
2022,04,27,16,59,10.10
2022,04,27,17,00,10.10
2022,04,27,17,01,10.10
2022,04,27,17,02,10.10
2022,04,27,17,03,10.10
2022,04,27,17,04,10.10
2022,04,27,17,05,10.00
2022,04,27,17,06,10.00
2022,04,27,17,07,10.10
2022,04,27,17,08,10.20
2022,04,27,17,09,10.30
2022,04,27,17,10,10.30
2022,04,27,17,11,10.30
2022,04,27,17,12,10.30
2022,04,27,17,13,10.30
2022,04,27,17,14,10.50
2022,04,27,17,15,10.50
2022,04,27,17,16,10.60
2022,04,27,17,17,10.80
2022,04,27,17,18,10.90
2022,04,27,17,19,10.90
2022,04,27,17,20,11.00
2022,04,27,17,21,10.90
2022,04,27,17,22,10.90
2022,04,27,17,23,10.80
2022,04,27,17,24,10.80
2022,04,27,17,25,10.80
2022,04,27,17,26,10.80
2022,04,27,17,27,10.70
2022,04,27,17,28,10.60
2022,04,27,17,29,10.60
2022,04,27,17,30,10.50
2022,04,27,17,31,10.40
2022,04,27,17,32,10.30
2022,04,27,17,33,10.30
2022,04,27,17,34,10.20
2022,04,27,17,35,10.20
2022,04,27,17,36,10.10
2022,04,27,17,37,10.00
2022,04,27,17,38,10.00
2022,04,27,17,39,9.90
2022,04,27,17,40,9.80
2022,04,27,17,41,9.80
2022,04,27,17,42,9.80
2022,04,27,17,43,9.80
2022,04,27,17,44,9.70
2022,04,27,17,45,9.70
2022,04,27,17,46,9.70
2022,04,27,17,47,9.60
2022,04,27,17,48,9.60
2022,04,27,17,49,9.50
2022,04,27,17,50,9.40
2022,04,27,17,51,9.40
2022,04,27,17,52,9.30
2022,04,27,17,53,9.30
2022,04,27,17,54,9.30
2022,04,27,17,55,9.20
2022,04,27,17,56,9.20
2022,04,27,17,57,9.20
2022,04,27,17,58,9.20